User: anonymous   Login
Location: Caltech
(34.1382°N, 118.1253°W)
Time: 02:26:41
(UTC-07:00)
Language:

Cosmos 1943 Rocket - Orbit

View from above orbital plane
View from above orbital plane
View from above satellite
View from above satellite

Ground track
Ground track

The orbit data is extracted from the following two-line orbital elements,

1 19120U 88039B   18173.20597626  .00000094  00000-0  67698-4 0  9991
2 19120  71.0153 263.0839 0022890 335.5634  24.4404 14.19184075558885
Epoch (UTC): 22 June 2018 04:56:36
Eccentricity: 0.0022890
inclination: 71.0153°
perigee height: 811 km
apogee height: 844 km
right ascension of ascending node: 263.0839°
argument of perigee: 335.5634°
revolutions per day: 14.19184075
mean anomaly at epoch: 24.4404°
orbit number at epoch: 55888

The dashed part of the orbit path shows where the satellite is in the earth's shadow,  

DLR